Regional Weather Roundup
Issued by NWS Albany, NY

Home | Current Version | Previous Version | Text Only | Print | Product List | Glossary On
Versions: 1 2 3 4 5 6 7 8 9 10 11 12 13 14 15 16 17 18 19 20 21 22 23 24 25 26 27 28 29 30 31 32 33 34 35 36 37 38 39 40 41 42 43 44 45 46 47 48 49 50
770
ASUS41 KALY 262210
RWRALY

NEW YORK STATE HOURLY WEATHER ROUNDUP
NATIONAL WEATHER SERVICE ALBANY NY
600 PM EDT SUN MAR 26 2017

NOTE: "FAIR" INDICATES FEW OR NO CLOUDS BELOW 12,000 FEET WITH NO
SIGNIFICANT WEATHER AND/OR NO OBSTRUCTIONS TO VISIBILITY.

NYZ032-033-038>043-046>054-057>066-NYZ062>081-082-084-262300-
EAST


CITY           SKY/WX    TMP DP  RH WIND       PRES   REMARKS
ALBANY         CLOUDY    37  30  75 SE7       30.38F FOG     WCI  32
GLENS FALLS    LGT RAIN  36  25  64 CALM      30.38F
POUGHKEEPSIE   CLOUDY    37  31  78 NE3       30.39F
NEWBURGH       CLOUDY    39  32  75 E8        30.39F WCI  34
MONTGOMERY     CLOUDY    38  33  82 N6        30.36F WCI  33
WHITE PLAINS   CLOUDY    39  33  79 E8        30.38F WCI  33
ISLIP          CLOUDY    41  35  79 E15G21    30.39S
NEW YORK CITY  CLOUDY    43  35  73 NE12      30.39F
CENTRAL PARK   CLOUDY    41  34  76 E9        30.41F
$$

NYZ005>009-017-018-044>046-055-056-262300-
CENTRAL


CITY           SKY/WX    TMP DP  RH WIND       PRES   REMARKS
FULTON         CLOUDY    39  30  70 SE9G22    30.15S WCI  33
SYRACUSE       CLOUDY    41  35  79 SE16      30.18F
ROME           CLOUDY    36  31  82 SE15G26   30.27F WCI  27
ELMIRA         CLOUDY    45  36  70 VRB7G22   30.18R
BINGHAMTON     CLOUDY    34  32  92 SE14      30.19F WCI  25
MONTICELLO     CLOUDY    32  30  93 E10       30.32F WCI  24
$$

NYZ026>034-041>043-087-262300-
NORTH


CITY           SKY/WX    TMP DP  RH WIND       PRES   REMARKS
WATERTOWN      CLOUDY    40  36  86 E7        30.16F
FORT DRUM      NOT AVBL
MASSENA        CLOUDY    32  23  69 E9        30.28F WCI  24
SARANAC LAKE   CLOUDY    34  31  88 E5        30.21F WCI  30
PLATTSBURGH    LGT RAIN  35  28  75 SE14      30.34F WCI  26
$$

NYZ001>004-010>016-019>021-085-262300-
WEST


CITY           SKY/WX    TMP DP  RH WIND       PRES   REMARKS
NIAGARA FALLS  MOSUNNY   58  44  60 S13       29.98F
BUFFALO        CLOUDY    55  43  63 S13       30.00S
DUNKIRK        LGT RAIN  57  45  64 S9G18     29.98R
JAMESTOWN      CLOUDY    52  41  66 S15G23    30.00F
WELLSVILLE     CLOUDY    43  39  86 S14       30.09F
ROCHESTER      PTSUNNY   52  42  69 S20G28    30.06F
PENN YAN       CLOUDY    46  37  71 S17       30.13S
$$

             KEY
       WCI = WIND CHILL INDEX
       VSB = VISIBILITY
       HX  = HEAT INDEX
$$




USA.gov is the U.S. government's official web portal to all federal, state and local government web resources and services.